Location: Maiden
(35.5760°N, 81.2120°W)
Time: 03:14:11
(UTC-04:00)

Meteor 1-26 Rocket - Pass Details

Date: 02 August 2020
Orbit: 811 x 924 km, 81.3° (Epoch: 11 August)

Event Time Altitude Azimuth Distance (km) Brightness Sun altitude
Rises 21:21:16 0° 357° (N) 3,437 7.9 -10.6°
Reaches altitude 10° 21:23:48 10° 2° (N) 2,479 7.0 -11.1°
Maximum altitude 21:29:16 52° 78° (ENE) 1,026 4.4 -12.0°
Enters shadow 21:33:59 13° 153° (SSE) 2,195 5.8 -12.9°
